Terug naar catalogus

STARLINK-31772

ActiefCommunicatieVLEO
NORAD 59430·PAYLOAD·🇺🇸 United States

Gelanceerd Apr 7, 2024 vanaf Vandenberg Space Force Base

Loading…

Volgende Passages (komende 24 uur)

TLE

VersSource: CelesTrak SupGP

Epoch: Sep 14, 2026, 20:38 UTC

1 59430C 24065K   26257.86020833 -.00044924  00000+0 -13273-2 0  2579
2 59430  53.1567 120.1338 0001314  92.3418 231.2921 15.34412636    10

Volg STARLINK-31772 in realtime met AllMySat

Download on the App Store